Regional Weather Roundup
Issued by NWS Northern Indiana

Home | Current Version | Previous Version | Text Only | Print | Product List | Glossary Off
Versions: 1 2 3 4 5 6 7 8 9 10 11 12 13 14 15 16 17 18 19 20 21 22 23 24 25 26 27 28 29 30 31 32 33 34 35 36 37 38 39 40 41 42 43 44 45 46 47 48 49 50

000
ASUS43 KIWX 172300
RWRIWX

KIWX WEATHER ROUNDUP
NATIONAL WEATHER SERVICE NORTHERN INDIANA
600 PM EST WED DEC 17 2014

NOTE: "FAIR" INDICATES FEW OR NO CLOUDS BELOW 12,000 FEET WITH NO
SIGNIFICANT WEATHER AND/OR OBSTRUCTIONS TO VISIBILITY.

* THESE STATIONS ARE NOT UNDER NWS QUALITY CONTROL. THEY ALSO MAY NOT
  REPORT WEATHER SUCH AS PRECIPITATION OR FOG.

INZ001>027-180000-
NORTHERN INDIANA

CITY           SKY/WX    TMP DP  RH WIND       PRES   REMARKS
GARY*          CLOUDY    28  18  64 W14       30.26  WCI  17
SOUTH BEND     CLOUDY    28  21  75 W10       30.22R WCI  19
GOSHEN         CLOUDY    27  21  78 W14       30.20R WCI  16
ANGOLA*        CLOUDY    27  21  80 W7        30.16R WCI  19
FORT WAYNE     FLURRIES  26  21  81 W14       30.22R WCI  14

$$
INZ028>050-180000-
CENTRAL INDIANA

CITY           SKY/WX    TMP DP  RH WIND       PRES   REMARKS
LAFAYETTE      CLOUDY    24  19  81 W8        30.28R WCI  15
KOKOMO*        CLOUDY    25  19  80 W14       30.24S WCI  13
MUNCIE*        CLOUDY    25  21  85 W12       30.23R WCI  14
INDIANAPOLIS   CLOUDY    24  19  81 W12       30.26R WCI  13

$$
MIZ043>046-050>051-056>058-064>065-071>073-077>080-180000-
SOUTHWEST LOWER MICHIGAN

CITY           SKY/WX    TMP DP  RH WIND       PRES   REMARKS
BATTLE CREEK   CLOUDY    29  18  63 NW14      30.15R WCI  18
BENTON HARBOR  CLOUDY    28  19  69 W9        30.21R WCI  19
COLDWATER*     CLOUDY    28  21  76 W12G17    30.15R WCI  18
HILLSDALE*     CLOUDY    28  21  74 NW16      30.12R WCI  16
HOLLAND        CLOUDY    31  21  66 W12       30.18R WCI  22
GRAND RAPIDS   FLURRIES  27  19  72 W14       30.15R WCI  16
KALAMAZOO      CLOUDY    28  20  71 W15       30.16R WCI  16
STURGIS*       CLOUDY    27  21  80 W12G18    30.17R WCI  16
THREE RIVERS*  CLOUDY    28  20  71 NW12G17   30.18R WCI  18

$$
OHZ001>008-015>018-024>025-180000-
NORTHWEST OHIO

CITY           SKY/WX    TMP DP  RH WIND       PRES   REMARKS
FINDLAY        CLOUDY    29  23  78 W16       30.16R WCI  17
TOLEDO EXPRESS CLOUDY    29  20  69 W15G24    30.15R WCI  18
TOLEDO METCALF CLOUDY    30  20  66 W12       30.15R WCI  20
LIMA           CLOUDY    30  22  72 W15G24    30.18R WCI  19

$$
AND FOR LAKE MICHIGAN COASTAL AND OPEN LAKE BUOY OBSERVATIONS

STATION/POSITION TEMP    WIND        PRES    VSBY  WAVE
                 AIR SEA DIR/SP/G                  HT/PER
                 (F)     (DEG/KT/KT) (MB)    (MI)  (FT/S)
CALUMET HARBOR    27     250/  6/ 10 1023.0R
SAINT JOSEPH      30     270/ 12/ 20 1023.4S

$$
&&



USA.gov is the U.S. government's official web portal to all federal, state and local government web resources and services.